Location: Killam
(52.7910°N, 111.8608°W)
Time: 08:59:15
(UTC+00:00)

NOAA 15 - Pass Details

Date: 24 December 2025
Orbit: 794 x 809 km, 98.5° (Epoch: 25 January)

Event Time Altitude Azimuth Distance (km) Brightness Sun altitude
Rises 13:24:28 0° 27° (NNE) 3,312 8.0 -18.8°
Reaches altitude 10° 13:27:49 10° 50° (NE) 2,374 7.5 -18.3°
Maximum altitude 13:30:54 16° 86° (E) 2,004 7.6 -17.9°
Drops below altitude 10° 13:33:57 10° 122° (ESE) 2,362 8.2 -17.5°
Sets 13:37:15 0° 144° (SE) 3,286 8.6 -17.0°
